Regional Weather Roundup
Issued by NWS

Home | Current Version | Previous Version | Text Only | Print | Product List | Glossary Off
Versions: 1 2 3 4 5 6 7 8 9 10 11 12 13 14 15 16 17 18 19 20 21 22 23 24 25 26 27 28 29 30 31 32 33 34 35 36 37 38 39 40 41 42 43 44 45 46 47 48 49 50

000
ASUS44 KMEG 240700
RWRTN
TENNESSEE HOURLY STATE WEATHER ROUNDUP
NATIONAL WEATHER SERVICE MEMPHIS TN
200 AM CDT SAT JUN 24 2017

TNZ002-004-019-021-049-052-054-088>092-240800-
WEST TENNESSEE

CITY           SKY/WX    TMP DP  RH WIND       PRES   REMARKS
MEMPHIS INTL   CLOUDY    72  71  97 NW5       29.95R
NWS MEMPHIS      N/A     71 N/A N/A MISG        N/A
JACKSON        CLOUDY    73  72  96 N3        29.94S
$$

TNZ008-025-027-028-033-062-065-066-240800-
NORTH MIDDLE TENNESSEE

CITY           SKY/WX    TMP DP  RH WIND       PRES   REMARKS
NASHVILLE      CLOUDY    76  70  82 NW7       29.93R
CLARKSVILLE    CLOUDY    71  68  90 N5        29.93R
SMYRNA         CLOUDY    75  72  90 NW9       29.92R
CROSSVILLE     LGT RAIN  71  70  96 CALM      29.96S FOG
$$

TNZ061-075-076-078-094-096-097-240800-
SOUTH MIDDLE TENNESSEE

CITY           SKY/WX    TMP DP  RH WIND       PRES   REMARKS
$$

TNZ017-018-042-046-047-240800-
NORTHEAST TENNESSEE

CITY           SKY/WX    TMP DP  RH WIND       PRES   REMARKS
TRI CITIES     PTCLDY    67  64  90 SW3       29.94R
$$

TNZ012-013-036-069-073-074-240800-
CENTRAL EAST TENNESSEE

CITY           SKY/WX    TMP DP  RH WIND       PRES   REMARKS
KNOXVILLE      CLOUDY    73  70  90 SW12      29.91S
OAK RIDGE      CLOUDY    73  71  93 VRB5      29.92S
GATLINBURG     MOCLDY    72  70  94 S3        29.91S
$$

TNZ083-085-099-240800-
SOUTHEAST TENNESSEE

CITY           SKY/WX    TMP DP  RH WIND       PRES   REMARKS
CHATTANOOGA    CLOUDY    74  72  93 S8        29.92F
$$

SKY/WX REPORTED AS FAIR MEANS FEW OR NO CLOUDS BELOW
12 THOUSAND FEET.





USA.gov is the U.S. government's official web portal to all federal, state and local government web resources and services.